Tracking 30922 objects as of 2-Jul-2025
HD Live streaming from Space Station
objects crossing your sky now

COSMOS 1867 COOLANT

Track COSMOS 1867 COOLANT now!
10-day predictions


NORAD ID: 39675
Int'l Code: 1987-060AN
Perigee: 774.0 km
Apogee: 796.5 km
Inclination: 65.0 °
Period: 100.4 minutes
Semi major axis: 7156 km
RCS: Unknown
Launch date: July 10, 1987
Source: Commonwealth of Independent States (former USSR) (CIS)
Launch site: TYURATAM MISSILE AND SPACE COMPLEX (TTMTR)

Note: This is SATELLITE DEBRIS
Your satellite tracking list
Your tracking list is empty




NASA's NSSDC Master Catalog

Two Line Element Set (TLE):
1 39675U 87060AN  25182.53126959  .00000226  00000-0  11662-3 0  9998
2 39675  65.0075 273.7561 0015730 260.2566  99.6743 14.34086673586424
Source of the keplerian elements: AFSPC